Вернуться в каталог

METEOR 2-7 DEB

АктивенPO
NORAD 45515·DEBRIS·🇷🇺 Russia

Запущен Feb 12, 1981 с Plesetsk Cosmodrome

Loading…

Ближайшие Пролёты (ближайшие 24 часа)

TLE

УстаревшееSource: Space-Track

Эпоха: Aug 18, 2026, 23:04 UTC

1 45515U 81043AA  26230.96159977  .00005871  00000-0  16249-2 0  9997
2 45515  81.2520 303.7526 0010349 120.3631  53.5862 14.46547815661488

Отслеживайте METEOR 2-7 DEB в реальном времени с AllMySat

Download on the App Store